CPA271 VHHH-EHAM

Flight info

Callsign CPA271
Flight time N/A
Altitude 34100
Route BEKOL A461 SHL W22 TEPID W24 OSNOV G586 QP B330 ELKAL W179 IGNAK/K0933S1010 W179 WFX/K0926S1040 W179 OMBON W195 VIDEK/K0919S1010 W195 LAXAL/K0911S1040 W195 IDOPA W197 ANDIM B215 IBANO G470 AKLAS W192 FKG A368 SARIN/K0909F340 N161 GASBI/N0495F340 N161 ABTEK/N0491F360 N161 LEYLA N644 ADEKI DCT BADIR DCT LAGAS DCT FOQUS DCT SARPI UM10 OLUPO UL851 KARDE UN644 SIN UW90 INB UL746 ODERO DCT OPT DCT SOKRU DCT DEGET DCT BEGLA/N0479F380 DCT DITIS DCT VARIK DCT KATCE DCT NORKU
Aircraft A35K/H-SDE2E3GHIJ3J4J5LM1ORWXY/LB1D1

Departure

Time 2026-05-04 05:15
Airport Hong Kong International Airport (VHHH)

Arrival

Time N/A
Airport Amsterdam Airport Schiphol (EHAM)
Time Latitude Longitude Altitude Speed Heading
2026-05-04 05:11 22.12265 114.25973 10599 ft 343 kts 103°
2026-05-04 05:11 22.12168 114.28604 10778 ft 358 kts 81°
2026-05-04 05:11 22.13055 114.31132 10958 ft 367 kts 54°
2026-05-04 05:11 22.14846 114.33093 11149 ft 371 kts 29°
2026-05-04 05:12 22.17216 114.34136 11302 ft 371 kts
2026-05-04 05:12 22.19780 114.34177 11506 ft 371 kts 348°
2026-05-04 05:12 22.22410 114.34105 11667 ft 388 kts
2026-05-04 05:12 22.25090 114.34685 11910 ft 399 kts
2026-05-04 05:13 22.27826 114.35334 12100 ft 408 kts
2026-05-04 05:13 22.30619 114.36016 12319 ft 415 kts
2026-05-04 05:13 22.33492 114.36734 12633 ft 419 kts
2026-05-04 05:13 22.36345 114.37381 12948 ft 420 kts
2026-05-04 05:14 22.39236 114.37331 13229 ft 412 kts 343°
2026-05-04 05:14 22.41891 114.36298 13545 ft 402 kts 324°
2026-05-04 05:14 22.44048 114.34461 13858 ft 392 kts 307°
2026-05-04 05:14 22.45536 114.32043 14182 ft 384 kts 290°
2026-05-04 05:15 22.46365 114.29367 14511 ft 382 kts 284°
2026-05-04 05:15 22.47384 114.26721 14804 ft 388 kts 293°
2026-05-04 05:15 22.48684 114.24141 15095 ft 392 kts 295°
2026-05-04 05:15 22.50027 114.21576 15375 ft 394 kts 295°
2026-05-04 05:16 22.51365 114.19025 15726 ft 394 kts 295°
2026-05-04 05:16 22.52724 114.16453 16098 ft 395 kts 297°
2026-05-04 05:16 22.54407 114.14021 16347 ft 405 kts 310°
2026-05-04 05:16 22.56628 114.12156 16667 ft 415 kts 324°
2026-05-04 05:17 22.59164 114.10635 16970 ft 419 kts 328°
2026-05-04 05:17 22.61802 114.09258 17296 ft 422 kts 330°
2026-05-04 05:17 22.64523 114.07921 17606 ft 424 kts 331°
2026-05-04 05:17 22.67183 114.06627 17910 ft 426 kts 331°
2026-05-04 05:18 22.69919 114.05279 18243 ft 427 kts 330°
2026-05-04 05:18 22.72622 114.03926 18505 ft 429 kts 330°
2026-05-04 05:18 22.75290 114.02570 18746 ft 430 kts 330°
2026-05-04 05:18 22.78000 114.01180 18988 ft 432 kts 329°
2026-05-04 05:19 22.80716 113.99781 19274 ft 432 kts 329°
2026-05-04 05:19 22.83460 113.98364 19635 ft 431 kts 329°
2026-05-04 05:19 22.86171 113.96963 19856 ft 433 kts 329°
2026-05-04 05:19 22.88903 113.95551 20072 ft 435 kts 329°
2026-05-04 05:20 22.91645 113.94139 20327 ft 437 kts 329°
2026-05-04 05:20 22.94355 113.92736 20568 ft 438 kts 329°
2026-05-04 05:20 22.97105 113.91303 20817 ft 440 kts 329°
2026-05-04 05:20 22.99863 113.89862 21069 ft 441 kts 329°
2026-05-04 05:21 23.02638 113.88412 21316 ft 443 kts 329°
2026-05-04 05:21 23.05415 113.86962 21564 ft 444 kts 329°
2026-05-04 05:21 23.08119 113.85364 21796 ft 441 kts 322°
2026-05-04 05:21 23.10567 113.83382 22052 ft 438 kts 315°
2026-05-04 05:22 23.12854 113.81207 22343 ft 437 kts 312°
2026-05-04 05:22 23.15066 113.78967 22788 ft 433 kts 311°
2026-05-04 05:22 23.17236 113.76697 23079 ft 433 kts 310°
2026-05-04 05:22 23.19398 113.74402 23339 ft 435 kts 310°
2026-05-04 05:23 23.21556 113.72109 23712 ft 433 kts 310°
2026-05-04 05:23 23.23716 113.69821 23928 ft 435 kts 310°
2026-05-04 05:23 23.25890 113.67526 24097 ft 437 kts 310°
2026-05-04 05:23 23.28081 113.65222 24289 ft 439 kts 310°
2026-05-04 05:24 23.30286 113.62906 24488 ft 441 kts 310°
2026-05-04 05:24 23.32501 113.60583 24694 ft 443 kts 310°
2026-05-04 05:24 23.34724 113.58252 24909 ft 445 kts 310°
2026-05-04 05:24 23.36958 113.55909 25132 ft 447 kts 310°
2026-05-04 05:25 23.39201 113.53552 25353 ft 449 kts 310°
2026-05-04 05:25 23.41450 113.51188 25578 ft 451 kts 310°
2026-05-04 05:25 23.43709 113.48814 25816 ft 452 kts 310°
2026-05-04 05:25 23.45977 113.46428 26061 ft 454 kts 310°
2026-05-04 05:26 23.48257 113.44029 26322 ft 456 kts 310°
2026-05-04 05:26 23.50543 113.41621 26568 ft 459 kts 310°
2026-05-04 05:26 23.52847 113.39190 26740 ft 463 kts 310°
2026-05-04 05:26 23.55172 113.36740 27010 ft 465 kts 310°
2026-05-04 05:27 23.57484 113.34275 27269 ft 467 kts 309°
2026-05-04 05:28 23.70454 113.15621 28772 ft 464 kts 290°
2026-05-04 05:29 23.71782 113.12416 29087 ft 463 kts 289°
2026-05-04 05:29 23.73091 113.09202 29430 ft 463 kts 289°
2026-05-04 05:29 23.74536 113.06060 29697 ft 467 kts 295°
2026-05-04 05:29 23.76351 113.03091 29984 ft 474 kts 302°
2026-05-04 05:31 23.97273 112.91470 31975 ft 500 kts 335°
2026-05-04 05:31 24.00609 112.90393 32187 ft 500 kts 335°
2026-05-04 05:32 24.03932 112.89310 32378 ft 499 kts 335°
2026-05-04 05:32 24.07258 112.88215 32578 ft 499 kts 335°
2026-05-04 05:32 24.10581 112.87113 32744 ft 498 kts 335°
2026-05-04 05:33 24.17208 112.84911 33180 ft 497 kts 334°
2026-05-04 05:33 24.20504 112.83821 33432 ft 495 kts 334°
2026-05-04 05:33 24.23800 112.82724 33587 ft 495 kts 334°
2026-05-04 05:33 24.27090 112.81625 33729 ft 495 kts 334°
2026-05-04 05:34 24.30383 112.80526 33957 ft 493 kts 334°
2026-05-04 05:34 24.33667 112.79430 34065 ft 494 kts 334°
2026-05-04 05:34 24.36957 112.78322 34089 ft 495 kts 333°
2026-05-04 05:35 24.43032 112.75108 34087 ft 475 kts 316°
2026-05-04 05:35 24.47713 112.70270 34119 ft 454 kts 299°
2026-05-04 05:35 24.49411 112.67402 34098 ft 443 kts 291°
2026-05-04 05:36 24.50657 112.64343 34103 ft 436 kts 283°
2026-05-04 05:36 24.51817 112.57931 34096 ft 424 kts 269°
2026-05-04 05:37 24.51580 112.51479 34091 ft 424 kts 266°
2026-05-04 05:37 24.51904 112.44998 34117 ft 427 kts 271°
2026-05-04 05:38 24.52782 112.35253 34097 ft 427 kts 272°
2026-05-04 05:38 24.53413 112.28767 34083 ft 427 kts 272°
2026-05-04 05:39 24.54355 112.18976 34092 ft 431 kts 272°
2026-05-04 05:40 24.55294 112.09159 34092 ft 430 kts 272°
2026-05-04 05:40 24.55910 112.02619 34102 ft 430 kts 272°
2026-05-04 05:41 24.56517 111.96082 34093 ft 430 kts 272°
2026-05-04 05:41 24.57125 111.89544 34093 ft 430 kts 272°
2026-05-04 05:42 24.57730 111.83013 34095 ft 430 kts 272°
2026-05-04 05:42 24.58334 111.76468 34092 ft 430 kts 272°
2026-05-04 05:43 24.58938 111.69931 34086 ft 430 kts 272°
2026-05-04 05:45 24.61307 111.43797 34085 ft 430 kts 272°
2026-05-04 05:47 24.63618 111.17622 34087 ft 430 kts 272°
2026-05-04 05:47 24.64176 111.11084 34079 ft 430 kts 272°
2026-05-04 05:48 24.64734 111.04538 34080 ft 430 kts 272°
2026-05-04 05:48 24.65292 110.98004 34080 ft 429 kts 272°
2026-05-04 05:49 24.65842 110.91479 34081 ft 430 kts 272°
2026-05-04 05:49 24.66461 110.84939 34079 ft 432 kts 276°
2026-05-04 05:51 24.78504 110.65452 34106 ft 462 kts 308°
2026-05-04 05:51 24.80843 110.63036 34074 ft 461 kts 308°
2026-05-04 05:52 24.85499 110.58196 34072 ft 460 kts 308°
2026-05-04 05:52 24.90088 110.53372 34070 ft 459 kts 308°
2026-05-04 05:54 25.08533 110.33873 34081 ft 459 kts 308°
2026-05-04 05:55 25.13140 110.29004 34115 ft 459 kts 308°
2026-05-04 05:55 25.17727 110.24152 34088 ft 455 kts 308°
2026-05-04 05:56 25.22295 110.19322 34096 ft 455 kts 308°
2026-05-04 05:56 25.26891 110.14506 34104 ft 455 kts 308°
2026-05-04 05:57 25.31491 110.09692 34069 ft 456 kts 308°
2026-05-04 05:57 25.36100 110.04860 34074 ft 457 kts 308°
2026-05-04 05:58 25.40709 110.00023 34072 ft 456 kts 308°
2026-05-04 05:58 25.45310 109.95183 34075 ft 456 kts 308°
2026-05-04 05:59 25.49913 109.90336 34081 ft 458 kts 308°
2026-05-04 05:59 25.54544 109.85453 34075 ft 460 kts 308°
2026-05-04 06:00 25.59179 109.80566 34084 ft 460 kts 308°
2026-05-04 06:00 25.63816 109.75671 34089 ft 461 kts 308°
2026-05-04 06:01 25.68456 109.70765 34086 ft 462 kts 308°
2026-05-04 06:03 25.80390 109.51008 34090 ft 435 kts 282°
2026-05-04 06:03 25.81241 109.47785 34087 ft 434 kts 281°
2026-05-04 06:05 25.88778 109.18737 34104 ft 435 kts 282°
2026-05-04 06:06 25.90463 109.12286 34105 ft 435 kts 282°
2026-05-04 06:06 25.92144 109.05837 34112 ft 434 kts 283°
2026-05-04 06:07 25.93840 108.99398 34109 ft 434 kts 283°
2026-05-04 06:07 25.95561 108.92972 34116 ft 434 kts 283°
2026-05-04 06:08 25.97266 108.86546 34120 ft 433 kts 283°
2026-05-04 06:08 25.98968 108.80115 34121 ft 433 kts 283°
2026-05-04 06:09 26.00665 108.73689 34125 ft 434 kts 283°
2026-05-04 06:11 26.07202 108.49081 34133 ft 432 kts 283°
2026-05-04 06:13 26.16380 108.24199 34145 ft 438 kts 292°
2026-05-04 06:14 26.25600 108.02870 34151 ft 437 kts 291°
2026-05-04 06:15 26.28226 107.96760 34156 ft 437 kts 291°
2026-05-04 06:15 26.30868 107.90603 34157 ft 437 kts 291°
2026-05-04 06:16 26.33474 107.84524 34180 ft 438 kts 291°
2026-05-04 06:16 26.36109 107.78364 34152 ft 436 kts 292°
2026-05-04 06:17 26.38699 107.72309 34155 ft 436 kts 292°
2026-05-04 06:17 26.41320 107.66169 34160 ft 436 kts 292°
2026-05-04 06:18 26.43925 107.60059 34165 ft 436 kts 292°
2026-05-04 06:20 26.54300 107.35594 34167 ft 435 kts 292°
2026-05-04 06:21 26.60773 107.20297 34174 ft 436 kts 292°
2026-05-04 06:22 26.63360 107.14170 34176 ft 436 kts 292°
2026-05-04 06:25 26.83843 106.72906 34176 ft 446 kts 312°
2026-05-04 06:26 26.88513 106.68317 34172 ft 447 kts 313°
2026-05-04 06:26 26.93243 106.63744 34169 ft 446 kts 313°
2026-05-04 06:27 27.05311 106.52751 33981 ft 458 kts 322°
2026-05-04 06:28 27.08142 106.51029 33720 ft 469 kts 328°
2026-05-04 06:28 27.11225 106.49661 33338 ft 485 kts 335°
2026-05-04 06:28 27.14562 106.48740 32642 ft 504 kts 342°
2026-05-04 06:28 27.18127 106.48336 31579 ft 529 kts 351°
2026-05-04 06:29 27.21918 106.48478 29840 ft 563 kts 358°
2026-05-04 06:29 27.25860 106.49018 25237 ft 560 kts
2026-05-04 06:29 27.29610 106.49801 16998 ft 538 kts 10°
2026-05-04 06:29 27.33108 106.50886 6932 ft 499 kts 17°
2026-05-04 06:30 27.34126 106.51266 3122 ft 10 kts 104°